Tracking 29040 objects as of 16-Jun-2024
HD Live streaming from Space Station
objects crossing your sky now

ONEWEB-0120

Track ONEWEB-0120 now!
10-day predictions
ONEWEB-0120 is classified as:


NORAD ID: 47266
Int'l Code: 2020-100J
Perigee: 1,219.4 km
Apogee: 1,222.3 km
Inclination: 87.9 °
Period: 109.7 minutes
Semi major axis: 7591 km
RCS: Unknown
Launch date: December 18, 2020
Source: United Kingdom (UK)
Launch site: VOSTOCHNY COSMODROME (VOSTO)
Your satellite tracking list
Your tracking list is empty




NASA's NSSDC Master Catalog

Two Line Element Set (TLE):
1 47266U 20100J   24168.41951803  .00000092  00000-0  22153-3 0  9997
2 47266  87.8939 136.1794 0001958  81.0774 279.0576 13.12445441168877
Source of the keplerian elements: AFSPC